Regional Weather Roundup
Issued by NWS Cleveland, OH

Home | Current Version | Previous Version | Graphics & Text | Print | Product List | Glossary On
Versions: 1 2 3 4 5 6 7 8 9 10 11 12 13 14 15 16 17 18 19 20 21 22 23 24 25 26 27 28 29 30 31 32 33 34 35 36 37 38 39 40 41 42 43 44 45 46 47 48 49 50
363
ASUS41 KCLE 231110
RWRCLE
OHIO REGIONAL WEATHER ROUNDUP
NATIONAL WEATHER SERVICE WILMINGTON, OH
700 AM EDT WED AUG 23 2017

NOTE: "FAIR" INDICATES FEW OR NO CLOUDS BELOW 12,000 FEET WITH NO
SIGNIFICANT WEATHER AND/OR OBSTRUCTIONS TO VISIBILITY.

OHZ001>008-015>018-024>027-034-035-043-044-231200-
   NORTHWEST OHIO

CITY           SKY/WX    TMP DP  RH WIND       PRES   REMARKS
DEFIANCE       FAIR      55  53  93 VRB3      29.98R
FINDLAY        FAIR      54  50  86 SW5       29.97R
TOLEDO EXPRESS FAIR      55  54  96 W7        29.96R
TOLEDO EXEC    FAIR      56  54  93 W5        29.96R
LIMA           FAIR      54  54 100 SW3       29.99R
$$

OHZ009>014-019>023-028>033-038-089-231200-
   NORTHEAST OHIO

CITY           SKY/WX    TMP DP  RH WIND       PRES   REMARKS
CLE-HOPKINS    FAIR      60  56  86 SW6       29.96R
CLE-LAKEFRONT  FAIR      69  53  56 W13       29.92R
CUY CO. ARPT   CLEAR     63  54  72 SW6       29.94
LORAIN-ELYRIA  FAIR      55  50  83 W3        29.96R
ASHTABULA      FAIR      55  55 100 CALM      29.93S
AKRON-CANTON   FAIR      58  54  86 NW7       29.95R
WOOSTER        FAIR      55  54  96 W3        29.97R
MANSFIELD      FAIR      56  54  93 W6        29.98R
YOUNGSTOWN     FAIR      58  58 100 CALM      29.94R
$$

OHZ042-051>053-060>062-070>072-077>081-231200-
  SOUTHWEST OHIO

CITY           SKY/WX    TMP DP  RH WIND       PRES   REMARKS
CINC-COVINGTON FAIR      63  59  87 N7        30.00R
CINC-LUNKEN    FAIR      60  60 100 CALM      30.01R
HAMILTON       FOG       56  55  97 CALM      30.02R VSB 3/4
DAYTON         FAIR      57  54  89 NW7       30.01R
WRIGHT-PAT AFB PTCLDY    56  56  99 CALM      30.00R
DAYTON GENERAL FAIR      58  55  90 CALM      30.00R
WILMINGTON     FAIR      59  56  89 N9        30.00R
$$

OHZ036-037-039>041-045>050-054>059-063>069-073>076-082>088-231200-
  CENTRAL AND SOUTHEAST OHIO

CITY           SKY/WX    TMP DP  RH WIND       PRES   REMARKS
COLUMBUS       FAIR      60  56  86 N5        29.98R
OSU AIRPORT    FAIR      57  55  93 CALM      29.99R
BOLTON FIELD   NOT AVBL
RICKENBACK AFB FAIR      58  56  92 NW6       29.98R
NEWARK         FAIR      58  54  86 CALM      29.97R
MARION         FAIR      55  52  89 CALM      29.99R
LANCASTER      FAIR      58  55  90 CALM      29.98R
ZANESVILLE     FAIR      61  57  87 NW5       29.96R
NEW PHILLY     FAIR      61  59  93 NW5       29.96R
$$




USA.gov is the U.S. government's official web portal to all federal, state and local government web resources and services.